20050701,000027,185533,32.707195,-117.236735,20.902,2.185,0.218,0.198
20050701,000056,185561,32.707195,-117.236740,20.904,2.185,0.224,0.196
20050701,000126,185591,32.707196,-117.236735,20.904,2.185,0.224,0.206
20050701,000156,185622,32.707193,-117.236740,20.906,2.185,0.224,0.207
20050701,000226,185652,32.707196,-117.236738,20.907,2.185,0.224,0.196
20050701,000257,185682,32.707196,-117.236743,20.907,2.185,0.224,0.208
20050701,000326,185712,32.707195,-117.236738,20.909,2.185,0.224,0.217
20050701,000357,185743,32.707195,-117.236742,20.909,2.185,0.224,0.230
20050701,000426,185771,32.707191,-117.236737,20.911,2.185,0.224,0.241
20050701,000456,185802,32.707193,-117.236740,20.912,2.185,0.218,0.206
20050701,000527,185832,32.707196,-117.236737,20.913,2.185,0.224,0.214
20050701,000556,185862,32.707193,-117.236738,20.915,2.185,0.224,0.207
20050701,000627,185893,32.707191,-117.236738,20.916,2.185,0.224,0.223
20050701,000656,185921,32.707200,-117.236735,20.918,2.185,0.224,0.245
20050701,000726,185951,32.707203,-117.236738,20.919,2.185,0.224,0.247
20050701,000756,185982,32.707200,-117.236737,20.919,2.185,0.218,0.224
20050701,000826,186012,32.707203,-117.236742,20.921,2.185,0.224,0.233
20050701,000856,186042,32.707201,-117.236740,20.921,2.185,0.224,0.250
20050701,000927,186073,32.707200,-117.236737,20.923,2.185,0.224,0.249
20050701,000956,186101,32.707198,-117.236737,20.924,2.185,0.224,0.248
20050701,001027,186133,32.707198,-117.236738,20.926,2.185,0.224,0.228
20050701,001056,186162,32.707201,-117.236737,20.927,2.185,0.224,0.211
20050701,001126,186192,32.707201,-117.236740,20.928,2.185,0.224,0.227
20050701,001157,186223,32.707193,-117.236738,20.929,2.185,0.224,0.255
20050701,001226,186251,32.707193,-117.236738,20.930,2.185,0.230,0.232
20050701,001257,186283,32.707193,-117.236737,20.931,2.185,0.224,0.237
20050701,001326,186312,32.707198,-117.236738,20.932,2.185,0.224,0.223
20050701,001356,186342,32.707196,-117.236735,20.933,2.185,0.224,0.224
20050701,001427,186373,32.707201,-117.236735,20.934,2.185,0.218,0.220
20050701,001456,186401,32.707193,-117.236735,20.935,2.185,0.224,0.240
20050701,001527,186433,32.707203,-117.236733,20.936,2.185,0.224,0.231
20050701,001556,186462,32.707206,-117.236735,20.937,2.185,0.224,0.224
20050701,001627,186492,32.707208,-117.236737,20.938,2.185,0.224,0.227
20050701,001656,186522,32.707205,-117.236737,20.939,2.185,0.224,0.237
20050701,001727,186553,32.707213,-117.236740,20.940,2.185,0.224,0.221
20050701,001756,186581,32.707213,-117.236738,20.942,2.185,0.224,0.238
20050701,001827,186613,32.707213,-117.236738,20.943,2.185,0.224,0.242
20050701,001856,186642,32.707211,-117.236742,20.943,2.185,0.224,0.225
20050701,001927,186672,32.707210,-117.236740,20.944,2.185,0.218,0.225
20050701,001956,186702,32.707215,-117.236737,20.945,2.185,0.224,0.239
20050701,002027,186733,32.707206,-117.236737,20.945,2.185,0.218,0.236
20050701,002056,186761,32.707206,-117.236735,20.947,2.185,0.218,0.240
20050701,002126,186791,32.707203,-117.236740,20.948,2.185,0.224,0.244
20050701,002157,186822,32.707208,-117.236745,20.949,2.185,0.224,0.242
20050701,002226,186852,32.707200,-117.236740,20.949,2.185,0.224,0.242
20050701,002257,186883,32.707200,-117.236740,20.951,2.185,0.224,0.244
20050701,002326,186911,32.707206,-117.236743,20.951,2.185,0.224,0.244
20050701,002357,186943,32.707206,-117.236743,20.953,2.185,0.224,0.243
20050701,002427,186973,32.707203,-117.236743,20.954,2.185,0.224,0.243
20050701,002457,187002,32.707203,-117.236743,20.954,2.185,0.230,0.249
20050701,002527,187032,32.707203,-117.236742,20.954,2.185,0.224,0.244
20050701,002556,187062,32.707206,-117.236740,20.956,2.185,0.224,0.240
20050701,002627,187093,32.707205,-117.236743,20.957,2.185,0.224,0.245
20050701,002656,187121,32.707206,-117.236745,20.958,2.185,0.224,0.242
20050701,002727,187153,32.707205,-117.236747,20.958,2.185,0.224,0.242
20050701,002757,187182,32.707205,-117.236745,20.960,2.185,0.224,0.243
20050701,002826,187212,32.707208,-117.236740,20.960,2.185,0.224,0.242
20050701,002857,187243,32.707206,-117.236743,20.961,2.185,0.218,0.231
20050701,002927,187273,32.707210,-117.236743,20.962,2.185,0.230,0.248
20050701,002957,187303,32.707208,-117.236740,20.963,2.185,0.224,0.245
20050701,003027,187332,32.707206,-117.236737,20.964,2.185,0.224,0.242
20050701,003057,187362,32.707205,-117.236738,20.965,2.185,0.224,0.236
20050701,003127,187393,32.707206,-117.236743,20.965,2.185,0.224,0.238
20050701,003157,187423,32.707205,-117.236747,20.966,2.185,0.224,0.240
20050701,003227,187453,32.707208,-117.236747,20.967,2.185,0.230,0.250
20050701,003257,187483,32.707206,-117.236740,20.968,2.185,0.224,0.241
20050701,003327,187512,32.707206,-117.236742,20.969,2.185,0.224,0.239
20050701,003357,187542,32.707203,-117.236740,20.970,2.185,0.230,0.247
20050701,003427,187573,32.707210,-117.236740,20.971,2.185,0.224,0.238
20050701,003457,187603,32.707203,-117.236742,20.972,2.185,0.224,0.241
20050701,003527,187633,32.707210,-117.236743,20.973,2.185,0.224,0.239
20050701,003557,187662,32.707205,-117.236742,20.974,2.185,0.224,0.240
20050701,003627,187692,32.707201,-117.236743,20.975,2.184,0.224,0.240
20050701,003657,187723,32.707198,-117.236742,20.975,2.184,0.218,0.231
20050701,003727,187753,32.707201,-117.236743,20.977,2.184,0.224,0.235
20050701,003757,187783,32.707206,-117.236747,20.977,2.184,0.224,0.236
20050701,003828,187814,32.707203,-117.236745,20.978,2.184,0.218,0.230
20050701,003857,187842,32.707203,-117.236742,20.980,2.184,0.224,0.237
20050701,003927,187872,32.707200,-117.236743,20.981,2.184,0.224,0.223
20050701,003958,187904,32.707198,-117.236743,20.982,2.184,0.224,0.235
20050701,004027,187933,32.707196,-117.236738,20.983,2.184,0.218,0.230
20050701,004057,187963,32.707196,-117.236742,20.984,2.184,0.224,0.231
20050701,004127,187993,32.707198,-117.236743,20.984,2.184,0.224,0.232
20050701,004157,188022,32.707201,-117.236745,20.985,2.184,0.224,0.238
20050701,004227,188052,32.707200,-117.236738,20.987,2.184,0.218,0.226
20050701,004257,188083,32.707200,-117.236737,20.987,2.184,0.224,0.232
20050701,004327,188113,32.707193,-117.236737,20.988,2.184,0.224,0.233
20050701,004357,188143,32.707198,-117.236745,20.989,2.184,0.224,0.231
20050701,004427,188172,32.707200,-117.236743,20.990,2.184,0.218,0.220
20050701,004457,188202,32.707198,-117.236743,20.991,2.184,0.224,0.220
20050701,004527,188233,32.707198,-117.236742,20.992,2.184,0.224,0.229
20050701,004558,188263,32.707195,-117.236735,20.993,2.184,0.224,0.229
20050701,004627,188293,32.707193,-117.236738,20.994,2.184,0.224,0.230
20050701,004657,188323,32.707193,-117.236738,20.994,2.184,0.224,0.234
20050701,004727,188352,32.707196,-117.236740,20.995,2.184,0.224,0.233
20050701,004757,188382,32.707198,-117.236740,20.996,2.184,0.230,0.236
20050701,004827,188413,32.707195,-117.236737,20.996,2.184,0.224,0.220
20050701,004857,188443,32.707198,-117.236742,20.997,2.184,0.224,0.227
20050701,004928,188474,32.707200,-117.236740,20.997,2.184,0.224,0.227
20050701,004957,188503,32.707203,-117.236747,20.999,2.184,0.224,0.217
20050701,005027,188532,32.707198,-117.236745,20.999,2.184,0.224,0.217
20050701,005057,188563,32.707203,-117.236747,20.999,2.184,0.218,0.210
20050701,005127,188593,32.707200,-117.236738,21.000,2.184,0.230,0.238
20050701,005157,188623,32.707205,-117.236740,21.001,2.184,0.218,0.209
20050701,005228,188654,32.707203,-117.236742,21.002,2.184,0.224,0.206
20050701,005257,188682,32.707198,-117.236742,21.003,2.184,0.224,0.220
20050701,005327,188712,32.707201,-117.236747,21.004,2.184,0.218,0.216
20050701,005357,188743,32.707201,-117.236748,21.004,2.184,0.224,0.214
20050701,005427,188773,32.707200,-117.236747,21.005,2.184,0.218,0.204
20050701,005457,188803,32.707196,-117.236743,21.005,2.184,0.224,0.216
20050701,005527,188833,32.707200,-117.236743,21.006,2.184,0.224,0.229
20050701,005557,188862,32.707193,-117.236735,21.007,2.184,0.224,0.230
20050701,005627,188892,32.707195,-117.236735,21.007,2.184,0.224,0.229
20050701,005657,188923,32.707203,-117.236743,21.008,2.184,0.224,0.210
20050701,005727,188953,32.707201,-117.236743,21.008,2.184,0.224,0.211
20050701,005758,188984,32.707203,-117.236747,21.010,2.184,0.224,0.207
20050701,005827,189012,32.707201,-117.236745,21.010,2.184,0.224,0.225
20050701,005858,189044,32.707205,-117.236747,21.010,2.184,0.218,0.209
20050701,005927,189073,32.707206,-117.236748,21.011,2.184,0.218,0.204
20050701,005958,189103,32.707205,-117.236745,21.012,2.184,0.218,0.187
20050701,010027,189133,32.707205,-117.236745,21.013,2.184,0.224,0.200
20050701,010057,189163,32.707206,-117.236743,21.013,2.184,0.224,0.202
20050701,010127,189192,32.707203,-117.236743,21.013,2.184,0.224,0.215
20050701,010157,189222,32.707198,-117.236740,21.014,2.184,0.224,0.181
20050701,010227,189253,32.707198,-117.236742,21.015,2.184,0.230,0.183
20050701,010257,189283,32.707200,-117.236743,21.016,2.184,0.224,0.190
20050701,010328,189314,32.707200,-117.236743,21.016,2.184,0.218,0.189
20050701,010357,189343,32.707198,-117.236742,21.017,2.184,0.224,0.176
20050701,010428,189374,32.707201,-117.236743,21.017,2.184,0.224,0.194
20050701,010457,189402,32.707205,-117.236743,21.018,2.184,0.224,0.181
20050701,010527,189433,32.707208,-117.236743,21.019,2.184,0.224,0.183
20050701,010558,189463,32.707200,-117.236742,21.019,2.184,0.224,0.188
20050701,010627,189493,32.707208,-117.236743,21.021,2.184,0.224,0.169
20050701,010658,189524,32.707206,-117.236747,21.020,2.184,0.218,0.164
20050701,010727,189552,32.707196,-117.236745,21.021,2.184,0.224,0.173
20050701,010758,189584,32.707206,-117.236752,21.021,2.184,0.218,0.165
20050701,010827,189613,32.707195,-117.236750,21.022,2.184,0.230,0.174
20050701,010857,189643,32.707196,-117.236748,21.023,2.184,0.224,0.175
20050701,010927,189673,32.707200,-117.236752,21.023,2.184,0.224,0.176
20050701,010957,189702,32.707193,-117.236750,21.024,2.184,0.224,0.174
20050701,011027,189732,32.707196,-117.236753,21.025,2.184,0.218,0.164
20050701,011058,189764,32.707200,-117.236755,21.025,2.184,0.224,0.167
20050701,011127,189793,32.707201,-117.236755,21.026,2.184,0.230,0.174
20050701,011157,189823,32.707200,-117.236755,21.026,2.184,0.224,0.167
20050701,011227,189853,32.707201,-117.236753,21.027,2.184,0.224,0.166
20050701,011257,189882,32.707198,-117.236757,21.027,2.184,0.224,0.166
20050701,011327,189913,32.707201,-117.236755,21.029,2.184,0.218,0.161
20050701,011357,189943,32.707198,-117.236753,21.029,2.184,0.224,0.167
20050701,011427,189973,32.707201,-117.236750,21.029,2.184,0.224,0.166
20050701,011457,190003,32.707201,-117.236752,21.029,2.184,0.218,0.160
20050701,011528,190034,32.707203,-117.236753,21.030,2.184,0.224,0.166
20050701,011557,190062,32.707208,-117.236752,21.031,2.184,0.218,0.161
20050701,011627,190093,32.707200,-117.236748,21.031,2.184,0.224,0.166
20050701,011657,190123,32.707201,-117.236752,21.032,2.184,0.224,0.166
20050701,011728,190153,32.707201,-117.236752,21.032,2.184,0.224,0.168
20050701,011757,190183,32.707201,-117.236747,21.033,2.184,0.218,0.162
20050701,011828,190214,32.707215,-117.236745,21.034,2.184,0.230,0.173
20050701,011857,190242,32.707211,-117.236743,21.034,2.184,0.224,0.168
20050701,011927,190273,32.707213,-117.236740,21.035,2.184,0.224,0.169
20050701,011958,190303,32.707213,-117.236738,21.036,2.184,0.224,0.170
20050701,012027,190333,32.707215,-117.236740,21.036,2.184,0.224,0.169
20050701,012058,190364,32.707213,-117.236747,21.037,2.184,0.224,0.168
20050701,012127,190392,32.707216,-117.236742,21.038,2.184,0.218,0.161
20050701,012157,190423,32.707213,-117.236742,21.038,2.184,0.224,0.167
20050701,012228,190453,32.707211,-117.236742,21.038,2.184,0.224,0.167
20050701,012257,190483,32.707210,-117.236743,21.040,2.184,0.224,0.166
20050701,012328,190514,32.707211,-117.236747,21.040,2.184,0.224,0.165
20050701,012357,190542,32.707215,-117.236752,21.040,2.184,0.224,0.165
20050701,012427,190572,32.707215,-117.236750,21.041,2.184,0.224,0.165
20050701,012457,190603,32.707211,-117.236747,21.042,2.184,0.218,0.160
20050701,012527,190633,32.707215,-117.236748,21.042,2.184,0.224,0.166
20050701,012558,190664,32.707211,-117.236753,21.043,2.184,0.224,0.165
20050701,012627,190693,32.707213,-117.236743,21.043,2.184,0.224,0.164
20050701,012658,190724,32.707213,-117.236752,21.044,2.184,0.218,0.158
20050701,012727,190752,32.707216,-117.236753,21.044,2.184,0.224,0.165
20050701,012758,190783,32.707213,-117.236747,21.045,2.184,0.224,0.165
20050701,012827,190813,32.707211,-117.236755,21.046,2.184,0.224,0.165
20050701,012857,190843,32.707211,-117.236760,21.046,2.184,0.224,0.166
20050701,012928,190874,32.707211,-117.236758,21.046,2.184,0.218,0.160
20050701,012957,190902,32.707210,-117.236753,21.047,2.184,0.224,0.166
20050701,013027,190933,32.707215,-117.236757,21.048,2.184,0.224,0.166
20050701,013058,190963,32.707216,-117.236760,21.048,2.184,0.224,0.165
20050701,013127,190993,32.707215,-117.236758,21.048,2.184,0.218,0.159
20050701,013157,191023,32.707215,-117.236757,21.049,2.184,0.230,0.171
20050701,013227,191052,32.707211,-117.236758,21.049,2.184,0.224,0.166
20050701,013257,191082,32.707210,-117.236762,21.049,2.184,0.224,0.165
20050701,013328,191114,32.707208,-117.236758,21.050,2.184,0.230,0.170
20050701,013357,191143,32.707206,-117.236753,21.051,2.184,0.224,0.164
20050701,013427,191173,32.707205,-117.236747,21.051,2.184,0.218,0.158
20050701,013458,191204,32.707206,-117.236745,21.051,2.184,0.224,0.163
20050701,013527,191232,32.707208,-117.236752,21.052,2.184,0.224,0.163
20050701,013557,191263,32.707206,-117.236755,21.052,2.184,0.218,0.157
20050701,013627,191293,32.707210,-117.236758,21.052,2.184,0.224,0.163
20050701,013657,191323,32.707205,-117.236753,21.053,2.184,0.230,0.168
20050701,013727,191353,32.707203,-117.236748,21.053,2.184,0.224,0.162
20050701,013758,191384,32.707200,-117.236747,21.053,2.184,0.224,0.162
20050701,013827,191412,32.707195,-117.236747,21.053,2.184,0.224,0.162
20050701,013858,191444,32.707201,-117.236753,21.053,2.184,0.224,0.162
20050701,013927,191473,32.707210,-117.236753,21.054,2.184,0.230,0.168
20050701,013957,191503,32.707208,-117.236752,21.054,2.184,0.224,0.163
20050701,014027,191533,32.707208,-117.236753,21.055,2.184,0.224,0.163
20050701,014057,191562,32.707215,-117.236760,21.055,2.184,0.218,0.158
20050701,014127,191592,32.707201,-117.236753,21.055,2.184,0.224,0.163
20050701,014157,191623,32.707205,-117.236750,21.055,2.184,0.224,0.162
20050701,014227,191653,32.707206,-117.236750,21.057,2.184,0.224,0.162
20050701,014258,191684,32.707203,-117.236752,21.056,2.184,0.224,0.162
20050701,014327,191712,32.707203,-117.236750,21.057,2.184,0.224,0.161
20050701,014358,191744,32.707203,-117.236750,21.056,2.184,0.224,0.161
20050701,014427,191773,32.707206,-117.236748,21.057,2.184,0.224,0.161
20050701,014457,191803,32.707198,-117.236748,21.056,2.184,0.230,0.166
20050701,014528,191833,32.707195,-117.236753,21.057,2.184,0.224,0.161
20050701,014557,191863,32.707193,-117.236748,21.057,2.184,0.224,0.161
20050701,014628,191894,32.707195,-117.236745,21.057,2.184,0.224,0.160
20050701,014657,191922,32.707200,-117.236750,21.058,2.184,0.224,0.160
20050701,014728,191954,32.707203,-117.236757,21.058,2.184,0.224,0.160
20050701,014757,191983,32.707203,-117.236755,21.059,2.184,0.224,0.160
20050701,014827,192013,32.707198,-117.236748,21.058,2.184,0.224,0.160
20050701,014857,192043,32.707196,-117.236750,21.057,2.184,0.224,0.160
20050701,014927,192072,32.707193,-117.236752,21.059,2.184,0.224,0.160
20050701,014957,192102,32.707196,-117.236747,21.059,2.184,0.224,0.160
20050701,015027,192133,32.707195,-117.236745,21.059,2.184,0.224,0.160
20050701,015058,192163,32.707196,-117.236752,21.059,2.184,0.224,0.160
20050701,015127,192193,32.707195,-117.236755,21.059,2.184,0.224,0.160
20050701,015158,192224,32.707193,-117.236753,21.059,2.184,0.224,0.160
20050701,015227,192252,32.707201,-117.236758,21.059,2.184,0.224,0.159
20050701,015257,192283,32.707200,-117.236758,21.059,2.184,0.230,0.165
20050701,015327,192313,32.707203,-117.236758,21.059,2.184,0.224,0.159
20050701,015357,192343,32.707200,-117.236752,21.059,2.184,0.224,0.159
20050701,015428,192374,32.707198,-117.236753,21.059,2.184,0.218,0.154
20050701,015457,192402,32.707195,-117.236752,21.060,2.184,0.224,0.159
20050701,015528,192434,32.707193,-117.236750,21.060,2.184,0.224,0.160
20050701,015557,192463,32.707180,-117.236752,21.059,2.184,0.230,0.165
20050701,015628,192493,32.707178,-117.236753,21.060,2.184,0.218,0.154
20050701,015657,192523,32.707183,-117.236757,21.060,2.184,0.224,0.159
20050701,015727,192553,32.707183,-117.236757,21.060,2.184,0.218,0.154
20050701,015757,192582,32.707186,-117.236758,21.059,2.184,0.224,0.159
20050701,015828,192614,32.707183,-117.236760,21.060,2.184,0.224,0.159
20050701,015857,192643,32.707185,-117.236758,21.060,2.184,0.224,0.159
20050701,015928,192673,32.707183,-117.236758,21.059,2.184,0.224,0.160
20050701,015958,192704,32.707185,-117.236758,21.059,2.184,0.224,0.159
20050701,020028,192734,32.707186,-117.236755,21.059,2.184,0.224,0.160
20050701,020058,192764,32.707188,-117.236755,21.059,2.184,0.224,0.160
20050701,020128,192794,32.707188,-117.236757,21.060,2.184,0.224,0.160
20050701,020158,192823,32.707193,-117.236758,21.059,2.184,0.224,0.160
20050701,020227,192853,32.707188,-117.236757,21.060,2.184,0.224,0.159
20050701,020258,192884,32.707193,-117.236757,21.059,2.184,0.224,0.159
20050701,020328,192914,32.707193,-117.236755,21.059,2.184,0.218,0.154
20050701,020358,192944,32.707193,-117.236757,21.059,2.184,0.224,0.159
20050701,020428,192973,32.707195,-117.236755,21.059,2.184,0.224,0.159
20050701,020458,193003,32.707191,-117.236755,21.059,2.184,0.224,0.158
20050701,020528,193034,32.707190,-117.236755,21.059,2.184,0.224,0.158
20050701,020558,193064,32.707193,-117.236747,21.059,2.184,0.224,0.158
20050701,020628,193094,32.707188,-117.236750,21.059,2.184,0.224,0.158
20050701,020658,193124,32.707191,-117.236753,21.059,2.184,0.224,0.158
20050701,020728,193153,32.707188,-117.236752,21.059,2.184,0.224,0.158
20050701,020758,193183,32.707188,-117.236757,21.059,2.184,0.230,0.163
20050701,020828,193214,32.707193,-117.236757,21.058,2.184,0.224,0.158
20050701,020858,193244,32.707188,-117.236760,21.057,2.184,0.230,0.163
20050701,020928,193274,32.707191,-117.236760,21.057,2.184,0.218,0.152
20050701,020958,193304,32.707193,-117.236753,21.057,2.184,0.218,0.152
20050701,021028,193333,32.707188,-117.236758,21.057,2.184,0.224,0.158
20050701,021058,193364,32.707191,-117.236758,21.057,2.184,0.224,0.158
20050701,021128,193394,32.707190,-117.236758,21.056,2.184,0.230,0.163
20050701,021158,193424,32.707188,-117.236758,21.057,2.184,0.224,0.157
20050701,021228,193454,32.707191,-117.236753,21.056,2.184,0.224,0.157
20050701,021258,193483,32.707190,-117.236750,21.056,2.184,0.230,0.163
20050701,021328,193513,32.707188,-117.236750,21.056,2.184,0.224,0.157
20050701,021358,193544,32.707188,-117.236753,21.055,2.184,0.224,0.157
20050701,021428,193574,32.707188,-117.236757,21.055,2.184,0.224,0.157
20050701,021458,193604,32.707188,-117.236757,21.054,2.184,0.224,0.157
20050701,021529,193635,32.707188,-117.236753,21.054,2.184,0.218,0.151
20050701,021558,193663,32.707190,-117.236753,21.053,2.184,0.224,0.157
20050701,021628,193693,32.707190,-117.236757,21.053,2.184,0.224,0.157
20050701,021658,193724,32.707186,-117.236758,21.053,2.184,0.224,0.157
20050701,021728,193754,32.707188,-117.236757,21.052,2.184,0.224,0.156
20050701,021758,193784,32.707193,-117.236757,21.053,2.184,0.224,0.157
20050701,021828,193814,32.707190,-117.236758,21.052,2.184,0.224,0.157
20050701,021858,193843,32.707190,-117.236760,21.052,2.184,0.230,0.162
20050701,021928,193874,32.707190,-117.236758,21.051,2.184,0.224,0.157
20050701,021958,193904,32.707193,-117.236757,21.051,2.184,0.224,0.157
20050701,022028,193934,32.707196,-117.236757,21.050,2.184,0.224,0.156
20050701,022058,193964,32.707191,-117.236758,21.050,2.184,0.224,0.156
20050701,022128,193993,32.707198,-117.236757,21.049,2.184,0.224,0.156
20050701,022158,194023,32.707200,-117.236760,21.049,2.184,0.224,0.156
20050701,022228,194054,32.707196,-117.236760,21.049,2.184,0.224,0.156
20050701,022258,194084,32.707196,-117.236758,21.048,2.184,0.218,0.150
20050701,022328,194114,32.707195,-117.236758,21.048,2.184,0.224,0.155
20050701,022359,194145,32.707191,-117.236752,21.047,2.184,0.224,0.155
20050701,022428,194173,32.707195,-117.236750,21.047,2.184,0.224,0.155
20050701,022458,194203,32.707198,-117.236750,21.047,2.184,0.224,0.155
20050701,022528,194234,32.707193,-117.236752,21.046,2.184,0.224,0.155
20050701,022558,194264,32.707195,-117.236752,21.046,2.184,0.224,0.155
20050701,022629,194295,32.707195,-117.236752,21.046,2.184,0.224,0.155
20050701,022658,194323,32.707193,-117.236755,21.046,2.184,0.224,0.155
20050701,022728,194353,32.707195,-117.236760,21.045,2.184,0.224,0.155
20050701,022758,194384,32.707193,-117.236755,21.045,2.184,0.218,0.149
20050701,022828,194414,32.707195,-117.236755,21.044,2.184,0.224,0.154
20050701,022858,194444,32.707195,-117.236753,21.044,2.184,0.224,0.154
20050701,022928,194474,32.707196,-117.236757,21.044,2.184,0.224,0.154
20050701,022958,194503,32.707188,-117.236765,21.043,2.184,0.224,0.154
20050701,023028,194533,32.707191,-117.236762,21.043,2.184,0.230,0.159
20050701,023058,194564,32.707196,-117.236762,21.042,2.184,0.224,0.154
20050701,023128,194594,32.707191,-117.236760,21.042,2.184,0.230,0.159
20050701,023158,194624,32.707193,-117.236762,21.042,2.184,0.224,0.154
20050701,023228,194654,32.707193,-117.236760,21.042,2.184,0.230,0.159
20050701,023258,194683,32.707190,-117.236762,21.041,2.184,0.224,0.153
20050701,023329,194715,32.707193,-117.236760,21.040,2.184,0.230,0.159
20050701,023358,194744,32.707193,-117.236758,21.040,2.184,0.224,0.153
20050701,023429,194774,32.707190,-117.236762,21.040,2.184,0.230,0.158
20050701,023458,194804,32.707190,-117.236763,21.039,2.184,0.224,0.153
20050701,023528,194833,32.707190,-117.236762,21.038,2.184,0.224,0.153
20050701,023558,194863,32.707191,-117.236760,21.039,2.184,0.230,0.158
20050701,023628,194894,32.707195,-117.236757,21.038,2.184,0.224,0.153
20050701,023659,194924,32.707193,-117.236752,21.038,2.184,0.224,0.153
20050701,023728,194954,32.707190,-117.236758,21.037,2.184,0.224,0.153
20050701,023758,194984,32.707188,-117.236758,21.037,2.184,0.218,0.147
20050701,023828,195013,32.707191,-117.236758,21.036,2.184,0.224,0.152
20050701,023858,195043,32.707191,-117.236757,21.036,2.184,0.224,0.152
20050701,023929,195075,32.707195,-117.236757,21.034,2.184,0.230,0.158
20050701,023958,195104,32.707196,-117.236757,21.034,2.184,0.230,0.158
20050701,024028,195134,32.707195,-117.236760,21.034,2.184,0.224,0.152
20050701,024058,195164,32.707195,-117.236760,21.033,2.184,0.224,0.152
20050701,024128,195193,32.707193,-117.236760,21.032,2.184,0.224,0.152
20050701,024159,195225,32.707191,-117.236757,21.032,2.184,0.230,0.157
20050701,024228,195254,32.707191,-117.236757,21.032,2.184,0.224,0.152
20050701,024258,195284,32.707191,-117.236758,21.032,2.184,0.224,0.152
20050701,024328,195314,32.707195,-117.236758,21.031,2.184,0.224,0.152
20050701,024359,195345,32.707190,-117.236762,21.030,2.184,0.224,0.152
20050701,024428,195373,32.707191,-117.236762,21.030,2.184,0.230,0.157
20050701,024458,195404,32.707191,-117.236760,21.029,2.184,0.230,0.157
20050701,024529,195434,32.707193,-117.236757,21.028,2.184,0.224,0.152
20050701,024558,195464,32.707193,-117.236758,21.027,2.184,0.224,0.152
20050701,024628,195494,32.707195,-117.236760,21.027,2.184,0.224,0.152
20050701,024658,195523,32.707196,-117.236758,21.026,2.184,0.224,0.152
20050701,024728,195553,32.707193,-117.236762,21.026,2.184,0.224,0.152
20050701,024758,195584,32.707191,-117.236762,21.026,2.184,0.224,0.152
20050701,024829,195614,32.707191,-117.236760,21.025,2.184,0.224,0.151
20050701,024858,195644,32.707191,-117.236762,21.024,2.184,0.224,0.151